Date,TemperatureHighF,TemperatureAvgF,TemperatureLowF,DewpointHighF,DewpointAvgF,DewpointLowF,HumidityHigh,HumidityAvg,HumidityLow,PressureMaxIn,PressureMinIn,WindSpeedMaxMPH,WindSpeedAvgMPH,GustSpeedMaxMPH,PrecipitationSumIn
2013-5-1,72.3,53.9,35.0,41.3,35.9,29.8,98,57,23,30.44,30.33,6,0,6,0.00
2013-5-2,82.7,55.8,39.2,50.8,41.3,36.4,98,64,23,30.46,30.31,7,0,8,0.00
2013-5-3,65.4,51.4,40.8,46.6,41.6,37.8,92,71,45,30.50,30.35,7,0,9,0.00
2013-5-4,67.7,49.6,36.3,47.8,39.0,21.2,99,72,22,30.35,30.27,7,0,9,0.00
2013-5-5,63.4,47.4,32.4,45.3,38.5,31.2,99,75,44,30.31,30.22,7,0,7,0.00
2013-5-6,75.3,51.5,34.5,51.7,43.3,33.2,99,78,29,30.27,30.11,7,0,7,0.00
2013-5-7,80.0,62.3,42.6,59.7,52.2,41.4,99,73,39,30.15,30.05,7,0,9,0.00
2013-5-8,76.0,61.8,50.6,64.8,57.9,49.4,99,88,63,30.17,30.02,9,0,9,0.11
2013-5-9,67.0,59.7,56.0,63.8,58.4,55.2,99,96,81,30.02,29.86,4,0,4,0.59
2013-5-10,81.8,65.5,54.2,64.7,58.2,53.7,100,80,41,29.93,29.86,7,0,7,0.01
2013-5-11,70.0,63.5,58.4,63.9,59.6,55.0,97,88,76,29.88,29.66,17,1,17,0.04
2013-5-12,72.3,60.9,49.0,61.4,52.4,31.7,98,76,42,29.78,29.53,12,0,18,0.17
2013-5-13,62.1,49.4,39.4,37.6,33.3,28.1,82,56,32,30.01,29.78,19,1,19,0.00
2013-5-14,61.2,48.8,35.5,37.9,33.9,28.9,93,60,35,30.02,29.94,14,0,14,0.00
2013-5-15,67.8,51.0,34.8,52.2,41.6,33.1,96,75,31,30.03,29.64,13,1,15,0.01
2013-5-16,83.5,65.0,45.7,50.1,43.0,32.5,97,54,22,29.78,29.59,18,1,25,0.01
2013-5-17,72.6,59.8,48.7,48.7,42.7,37.2,86,55,32,30.19,29.78,16,1,19,0.00
2013-5-18,75.8,58.5,41.7,51.9,45.3,35.8,98,67,27,30.28,30.18,10,0,11,0.00
2013-5-19,75.0,57.0,46.3,55.8,50.9,44.4,98,82,43,30.32,30.19,9,0,9,0.09
2013-5-20,83.4,67.4,55.3,67.8,61.2,54.8,99,83,53,30.19,29.88,6,0,13,0.04
2013-5-21,84.2,62.9,51.5,70.9,58.2,49.8,99,86,57,29.99,29.83,7,0,7,0.00
2013-5-22,69.0,56.6,50.2,65.0,54.7,49.3,99,94,83,30.04,29.85,10,0,11,0.36
2013-5-23,75.6,63.4,53.9,71.4,61.4,53.1,100,94,82,29.91,29.77,14,1,14,0.24
2013-5-24,71.2,62.6,48.7,68.4,61.2,48.3,99,95,82,29.80,29.62,14,0,14,0.28
2013-5-25,51.9,47.4,41.2,51.5,46.9,40.2,100,98,96,29.79,29.68,19,1,20,0.30
2013-5-26,60.4,48.4,39.7,45.9,41.4,38.7,99,78,51,30.07,29.69,18,1,20,0.06
2013-5-27,75.8,56.8,39.3,46.8,41.4,35.7,98,63,26,30.15,30.04,16,1,20,0.00
2013-5-28,76.5,58.2,40.6,54.8,47.7,39.7,99,72,31,30.21,30.12,6,0,6,0.00
2013-5-29,68.7,61.9,56.9,65.6,60.2,53.1,100,94,86,30.16,29.96,6,0,7,1.18
2013-5-30,89.5,74.1,61.2,72.5,66.5,60.9,100,80,49,30.05,29.97,12,0,14,0.00
2013-5-31,95.5,78.9,63.3,74.2,67.1,62.7,100,72,37,30.06,29.89,11,0,11,0.00